ucweb.com alexa rank chart, ucweb.com alexa rank daily changes

ucweb.com alexa rank chart, ucweb.com alexa rank daily changes

ucweb.com
Actual rank:
6 919

RANK HISTORY

Date Rank Diff
2018/02/25 6 919 +1 548
2018/02/24 5 371 -2 154
2018/02/23 7 525 +672
2018/02/22 6 853 +273
2018/02/21 6 580 +898
2018/02/20 5 682 -1 605
2018/02/19 7 287 +507
2018/02/18 6 780 +688
2018/02/17 6 092 -633
2018/02/16 6 725 +579
2018/02/15 6 146 -740
2018/02/14 6 886 +882
2018/02/13 6 004 -52
2018/02/12 6 056 -57
2018/02/11 6 113 +212
2018/02/10 5 901 -799
2018/02/09 6 700 -15
2018/02/08 6 715 -186
2018/02/07 6 901 +181
2018/02/06 6 720 -291
2018/02/05 7 011 +208
2018/02/04 6 803 +443
2018/02/03 6 360 -334
2018/02/02 6 694 -441
2018/02/01 7 135 +276
2018/01/31 6 859 +88
2018/01/30 6 771 -10
2018/01/29 6 781 +13
2018/01/28 6 768 +30
2018/01/27 6 738 +60
2018/01/26 6 678 +73
2018/01/25 6 605 +51
2018/01/24 6 554 +145
2018/01/23 6 409 +69
2018/01/22 6 340 +64
2018/01/21 6 276 +55
2018/01/20 6 221 +49
2018/01/19 6 172 +47
2018/01/18 6 125 +52
2018/01/17 6 073 -14
2018/01/16 6 087 +27
2018/01/15 6 060 +4
2018/01/14 6 056 -26
2018/01/13 6 082 +157
2018/01/12 5 925 +34
2018/01/11 5 891 +34
2018/01/10 5 857 +80
2018/01/09 5 777 +51
2018/01/08 5 726 +25
2018/01/07 5 701 +34
2018/01/06 5 667 +47
2018/01/05 5 620 +53
2018/01/04 5 567 +41
2018/01/03 5 526 +89
2018/01/02 5 437 +9
2018/01/01 5 428 +36
2017/12/31 5 392 +43
2017/12/30 5 349 +94
2017/12/29 5 255 +31
2017/12/27 5 224

WIDGET FOR YOUR SITE

DOMAINS WITH THE NEAREST RANK

Domain Rank
kidstaff.com.ua 6 914
romwe.com 6 915
norwegian.com 6 916
programiz.com 6 917
thegamer.tv 6 918
ucweb.com 6 919
gametwist.com 6 920
duke-energy.com 6 921
net.hr 6 922
gigabyte.com 6 923
eastbay.com 6 924

DOMAINS WITH THE NEAREST RANK BY TLD .com

Domain Rank
pussyspace.com 6 902
blackdesertonline.com 6 912
romwe.com 6 915
norwegian.com 6 916
programiz.com 6 917
ucweb.com 6 919
gametwist.com 6 920
duke-energy.com 6 921
gigabyte.com 6 923
eastbay.com 6 924
jwplayer.com 6 925